| time (UTC) | temp F | wind direction | speed MPH | gust MPH | rain 1hr in | rain 24hr in | rain mn in | humidity % | barometer mb |
| 20260905163041 | 96 | 246 | 1.0 | 5.0 | 0.00 | 0.00 | 0.00 | 44 | 1009.9 |
| 20260905161538 | 94 | 305 | 0.0 | 4.0 | 0.00 | 0.00 | 0.00 | 47 | 1009.9 |
| 20260905160033 | 94 | 262 | 1.0 | 5.0 | 0.00 | 0.00 | 0.00 | 48 | 1009.9 |
| 20260905154529 | 92 | 226 | 1.0 | 7.0 | 0.00 | 0.00 | 0.00 | 50 | 1009.9 |
| 20260905153032 | 90 | 279 | 1.0 | 5.0 | 0.00 | 0.00 | 0.00 | 51 | 1009.8 |
| 20260905151521 | 89 | 238 | 1.0 | 5.0 | 0.00 | 0.00 | 0.00 | 54 | 1009.8 |
| 20260905150023 | 87 | 277 | 1.0 | 7.0 | 0.00 | 0.00 | 0.00 | 56 | 1009.8 |
| 20260905144517 | 86 | 311 | 2.0 | 6.0 | 0.00 | 0.00 | 0.00 | 57 | 1009.8 |
| 20260905143023 | 85 | 269 | 1.0 | 5.0 | 0.00 | 0.00 | 0.00 | 59 | 1009.8 |
| 20260905141514 | 83 | 169 | 0.0 | 5.0 | 0.00 | 0.00 | 0.00 | 62 | 1009.7 |
| 20260905140015 | 82 | 225 | 1.0 | 5.0 | 0.00 | 0.00 | 0.00 | 64 | 1009.7 |
| 20260905134523 | 81 | 272 | 1.0 | 7.0 | 0.00 | 0.00 | 0.00 | 65 | 1009.6 |
| 20260905133011 | 80 | 226 | 1.0 | 6.0 | 0.00 | 0.00 | 0.00 | 66 | 1009.5 |
| 20260905131510 | 80 | 240 | 1.0 | 5.0 | 0.00 | 0.00 | 0.00 | 67 | 1009.4 |
| 20260905130008 | 79 | 142 | 0.0 | 4.0 | 0.00 | 0.00 | 0.00 | 68 | 1009.3 |
| 20260905124508 | 79 | 252 | 1.0 | 4.0 | 0.00 | 0.00 | 0.00 | 69 | 1009.1 |
| 20260905123014 | 79 | 193 | 1.0 | 3.0 | 0.00 | 0.00 | 0.00 | 68 | 1009.0 |
| 20260905121503 | 79 | 136 | 0.0 | 4.0 | 0.00 | 0.00 | 0.00 | 67 | 1009.0 |
| 20260905120002 | 79 | 203 | 1.0 | 4.0 | 0.00 | 0.00 | 0.00 | 67 | 1008.7 |
| 20260905114600 | 79 | 181 | 1.0 | 4.0 | 0.00 | 0.00 | 0.00 | 67 | 1008.6 |
| 20260905113106 | 79 | 259 | 1.0 | 4.0 | 0.00 | 0.00 | 0.00 | 66 | 1008.6 |
| 20260905111601 | 80 | 160 | 0.0 | 4.0 | 0.00 | 0.00 | 0.00 | 66 | 1008.7 |
| 20260905110057 | 80 | 217 | 1.0 | 4.0 | 0.00 | 0.00 | 0.00 | 66 | 1008.8 |
| 20260905104557 | 80 | 239 | 1.0 | 4.0 | 0.00 | 0.00 | 0.00 | 66 | 1008.8 |
| 20260905103100 | 80 | 235 | 0.0 | 4.0 | 0.00 | 0.00 | 0.00 | 66 | 1008.8 |
| 20260905101556 | 80 | 266 | 1.0 | 5.0 | 0.00 | 0.00 | 0.00 | 65 | 1008.6 |
| 20260905100058 | 81 | 249 | 0.0 | 4.0 | 0.00 | 0.00 | 0.00 | 65 | 1008.6 |
| 20260905094550 | 81 | 146 | 1.0 | 6.0 | 0.00 | 0.00 | 0.00 | 65 | 1008.7 |
| 20260905093049 | 81 | 249 | 1.0 | 5.0 | 0.00 | 0.00 | 0.00 | 64 | 1008.6 |
| 20260905091553 | 82 | 224 | 0.0 | 3.0 | 0.00 | 0.00 | 0.00 | 63 | 1008.7 |
| 20260905090045 | 82 | 139 | 1.0 | 5.0 | 0.00 | 0.00 | 0.00 | 62 | 1008.6 |
| 20260905084600 | 82 | 156 | 1.0 | 4.0 | 0.00 | 0.00 | 0.00 | 62 | 1008.6 |
| 20260905083040 | 83 | 273 | 1.0 | 6.0 | 0.00 | 0.00 | 0.00 | 61 | 1008.5 |
| 20260905081540 | 83 | 167 | 2.0 | 7.0 | 0.00 | 0.00 | 0.00 | 61 | 1008.2 |
| 20260905080107 | 83 | 215 | 2.0 | 7.0 | 0.00 | 0.00 | 0.00 | 60 | 1008.2 |
| 20260905074537 | 84 | 332 | 2.0 | 8.0 | 0.00 | 0.00 | 0.00 | 60 | 1008.1 |
| 20260905073035 | 84 | 251 | 2.0 | 8.0 | 0.00 | 0.00 | 0.00 | 59 | 1008.2 |
| 20260905071535 | 84 | 200 | 2.0 | 6.0 | 0.00 | 0.00 | 0.00 | 58 | 1008.3 |
| 20260905070038 | 85 | 268 | 2.0 | 6.0 | 0.00 | 0.00 | 0.00 | 58 | 1008.3 |
| 20260905064530 | 85 | 262 | 2.0 | 7.0 | 0.00 | 0.00 | 0.00 | 57 | 1008.4 |
| 20260905063031 | 85 | 305 | 2.0 | 6.0 | 0.00 | 0.00 | 0.00 | 57 | 1008.4 |
| 20260905061527 | 86 | 160 | 2.0 | 7.0 | 0.00 | 0.00 | 0.00 | 56 | 1008.5 |
| 20260905060040 | 86 | 176 | 1.0 | 7.0 | 0.00 | 0.00 | 0.00 | 55 | 1008.4 |
| 20260905054521 | 87 | 236 | 4.0 | 8.0 | 0.00 | 0.00 | 0.00 | 55 | 1008.4 |
| 20260905053020 | 87 | 200 | 2.0 | 8.0 | 0.00 | 0.00 | 0.00 | 54 | 1008.5 |
| 20260905051523 | 87 | 226 | 1.0 | 7.0 | 0.00 | 0.00 | 0.00 | 53 | 1008.5 |
| 20260905050019 | 88 | 233 | 1.0 | 6.0 | 0.00 | 0.00 | 0.00 | 53 | 1008.5 |
| 20260905044520 | 88 | 186 | 1.0 | 5.0 | 0.00 | 0.00 | 0.00 | 52 | 1008.4 |
| 20260905043014 | 88 | 270 | 1.0 | 4.0 | 0.00 | 0.00 | 0.00 | 51 | 1008.5 |
| 20260905041514 | 89 | 221 | 2.0 | 8.0 | 0.00 | 0.00 | 0.00 | 51 | 1008.5 |
| 20260905040013 | 89 | 347 | 1.0 | 5.0 | 0.00 | 0.00 | 0.00 | 51 | 1008.4 |
| 20260905034516 | 89 | 226 | 1.0 | 6.0 | 0.00 | 0.00 | 0.00 | 50 | 1008.4 |
| 20260905033012 | 89 | 148 | 2.0 | 8.0 | 0.00 | 0.00 | 0.00 | 50 | 1008.2 |
| 20260905031515 | 90 | 129 | 1.0 | 8.0 | 0.00 | 0.00 | 0.00 | 49 | 1008.0 |
| 20260905030014 | 90 | 145 | 1.0 | 6.0 | 0.00 | 0.00 | 0.00 | 49 | 1007.8 |
| 20260905024514 | 91 | 208 | 2.0 | 9.0 | 0.00 | 0.00 | 0.00 | 48 | 1007.6 |
| 20260905023016 | 91 | 159 | 1.0 | 5.0 | 0.00 | 0.00 | 0.00 | 47 | 1007.4 |
| 20260905021520 | 91 | 334 | 0.0 | 5.0 | 0.00 | 0.00 | 0.00 | 47 | 1007.1 |
| 20260905020009 | 92 | 139 | 0.0 | 5.0 | 0.00 | 0.00 | 0.00 | 47 | 1006.9 |
| 20260905014509 | 92 | 257 | 1.0 | 5.0 | 0.00 | 0.00 | 0.00 | 46 | 1006.6 |
| 20260905013007 | 92 | 190 | 1.0 | 7.0 | 0.00 | 0.00 | 0.00 | 46 | 1006.5 |
| 20260905011507 | 93 | 198 | 2.0 | 7.0 | 0.00 | 0.00 | 0.00 | 46 | 1006.3 |
| 20260905010105 | 93 | 125 | 0.0 | 8.0 | 0.00 | 0.00 | 0.00 | 45 | 1006.1 |
| 20260905004505 | 94 | 250 | 2.0 | 7.0 | 0.00 | 0.00 | 0.00 | 44 | 1006.1 |
| 20260905003008 | 95 | 218 | 1.0 | 5.0 | 0.00 | 0.00 | 0.00 | 43 | 1006.0 |
| 20260905001506 | 96 | 155 | 1.0 | 5.0 | 0.00 | 0.00 | 0.00 | 42 | 1006.0 |
| 20260905000003 | 96 | 263 | 2.0 | 7.0 | 0.00 | 0.00 | 0.00 | 42 | 1005.9 |
| 20260904234503 | 97 | 79 | 2.0 | 7.0 | 0.00 | 0.00 | 0.00 | 41 | 1006.0 |
| 20260904233004 | 97 | 245 | 2.0 | 7.0 | 0.00 | 0.00 | 0.00 | 41 | 1006.0 |
| 20260904231502 | 99 | 128 | 1.0 | 7.0 | 0.00 | 0.00 | 0.00 | 39 | 1005.8 |
| 20260904230101 | 100 | 94 | 1.0 | 7.0 | 0.00 | 0.00 | 0.00 | 39 | 1005.9 |
| 20260904230002 | 99 | 159 | 2.0 | 7.0 | 0.00 | 0.00 | 0.00 | 39 | 1005.9 |
| 20260904224559 | 100 | 287 | 2.0 | 7.0 | 0.00 | 0.00 | 0.00 | 39 | 1005.8 |
| 20260904223059 | 100 | 179 | 2.0 | 7.0 | 0.00 | 0.00 | 0.00 | 38 | 1005.8 |
| 20260904221557 | 100 | 238 | 2.0 | 8.0 | 0.00 | 0.00 | 0.00 | 38 | 1005.8 |
| 20260904220107 | 100 | 156 | 2.0 | 9.0 | 0.00 | 0.00 | 0.00 | 38 | 1005.8 |
| 20260904214555 | 101 | 246 | 2.0 | 8.0 | 0.00 | 0.00 | 0.00 | 37 | 1006.0 |
| 20260904213053 | 101 | 245 | 3.0 | 9.0 | 0.00 | 0.00 | 0.00 | 38 | 1006.1 |
| 20260904211551 | 100 | 172 | 2.0 | 9.0 | 0.00 | 0.00 | 0.00 | 39 | 1006.2 |
| 20260904210055 | 100 | 253 | 3.0 | 9.0 | 0.00 | 0.00 | 0.00 | 38 | 1006.4 |
| 20260904204549 | 101 | 264 | 2.0 | 8.0 | 0.00 | 0.00 | 0.00 | 38 | 1006.6 |
| 20260904203049 | 101 | 146 | 2.0 | 8.0 | 0.00 | 0.00 | 0.00 | 37 | 1006.6 |
| 20260904201600 | 101 | 194 | 2.0 | 11.0 | 0.00 | 0.00 | 0.00 | 37 | 1006.7 |
| 20260904200050 | 101 | 39 | 2.0 | 7.0 | 0.00 | 0.00 | 0.00 | 36 | 1006.9 |
| 20260904194540 | 100 | 210 | 2.0 | 8.0 | 0.00 | 0.00 | 0.00 | 38 | 1007.0 |
| 20260904193039 | 100 | 225 | 4.0 | 10.0 | 0.00 | 0.00 | 0.00 | 38 | 1007.1 |
| 20260904191540 | 100 | 316 | 2.0 | 16.0 | 0.00 | 0.00 | 0.00 | 39 | 1007.2 |
| 20260904190034 | 99 | 232 | 2.0 | 9.0 | 0.00 | 0.00 | 0.00 | 40 | 1007.3 |
| 20260904184539 | 98 | 222 | 3.0 | 9.0 | 0.00 | 0.00 | 0.00 | 42 | 1007.7 |
| 20260904183031 | 98 | 312 | 1.0 | 7.0 | 0.00 | 0.00 | 0.00 | 43 | 1007.6 |
| 20260904181532 | 96 | 293 | 3.0 | 8.0 | 0.00 | 0.00 | 0.00 | 45 | 1008.0 |
| 20260904180024 | 96 | 142 | 2.0 | 10.0 | 0.00 | 0.00 | 0.00 | 47 | 1008.1 |
| 20260904174527 | 95 | 66 | 2.0 | 9.0 | 0.00 | 0.00 | 0.00 | 48 | 1008.3 |
| 20260904173016 | 95 | 66 | 2.0 | 10.0 | 0.00 | 0.00 | 0.00 | 48 | 1008.6 |
| 20260904171514 | 94 | 120 | 3.0 | 7.0 | 0.00 | 0.00 | 0.00 | 50 | 1008.7 |
| 20260904170008 | 93 | 129 | 1.0 | 7.0 | 0.00 | 0.00 | 0.00 | 52 | 1008.9 |
| 20260904164506 | 92 | 245 | 1.0 | 10.0 | 0.00 | 0.00 | 0.00 | 53 | 1009.0 |